Time,TemperatureF,DewpointF,PressureIn,WindDirection,WindDirectionDegrees,WindSpeedMPH,WindSpeedGustMPH,Humidity,HourlyPrecipIn,Conditions,Clouds,dailyrainin,SolarRadiationWatts/m^2,SoftwareType,DateUTC
2013-09-13 00:04:00,46.0,45.0,-100.00,NNW,345,5.0,11.0,95,0.01,,,0.04,0.000000,,2013-09-13 04:04:00,
2013-09-13 00:12:00,46.0,45.0,-100.00,NNW,337,5.0,12.0,95,0.03,,,0.07,0.000000,,2013-09-13 04:12:00,
2013-09-13 00:44:00,46.0,45.0,-100.00,NNW,337,5.0,12.0,95,0.03,,,0.07,0.000000,,2013-09-13 04:44:00,
2013-09-13 00:54:00,46.0,45.0,-100.00,NNW,337,5.0,12.0,95,0.03,,,0.07,0.000000,,2013-09-13 04:54:00,
2013-09-13 01:03:00,46.0,45.0,-100.00,NNW,337,5.0,12.0,95,0.03,,,0.07,0.000000,,2013-09-13 05:03:00,
2013-09-13 01:12:00,45.0,41.0,-100.00,NNW,347,5.0,11.0,87,0.00,,,0.07,0.000000,,2013-09-13 05:12:00,
2013-09-13 01:43:00,45.0,41.0,-100.00,NNW,347,5.0,11.0,87,0.00,,,0.07,0.000000,,2013-09-13 05:43:00,
2013-09-13 01:53:00,45.0,41.0,-100.00,NNW,347,5.0,11.0,87,0.00,,,0.07,0.000000,,2013-09-13 05:53:00,
2013-09-13 02:02:00,45.0,41.0,-100.00,NNW,347,5.0,11.0,87,0.00,,,0.07,0.000000,,2013-09-13 06:02:00,
2013-09-13 02:42:00,44.0,39.0,-100.00,NNW,334,5.0,10.0,81,0.00,,,0.07,0.000000,,2013-09-13 06:42:00,
2013-09-13 02:52:00,44.0,39.0,-100.00,NNW,334,5.0,10.0,81,0.00,,,0.07,0.000000,,2013-09-13 06:52:00,
2013-09-13 03:02:00,44.0,39.0,-100.00,NNW,334,5.0,10.0,81,0.00,,,0.07,0.000000,,2013-09-13 07:02:00,
2013-09-13 03:11:00,44.0,39.0,-100.00,NNW,334,5.0,10.0,81,0.00,,,0.07,0.000000,,2013-09-13 07:11:00,
2013-09-13 03:43:00,44.0,38.0,-100.00,NNW,330,4.0,10.0,80,0.00,,,0.07,0.000000,,2013-09-13 07:43:00,
2013-09-13 03:52:00,44.0,38.0,-100.00,NNW,330,4.0,10.0,80,0.00,,,0.07,0.000000,,2013-09-13 07:52:00,
2013-09-13 04:02:00,44.0,38.0,-100.00,NNW,330,4.0,10.0,80,0.00,,,0.07,0.000000,,2013-09-13 08:02:00,
2013-09-13 04:11:00,44.0,38.0,-100.00,NNW,330,4.0,10.0,80,0.00,,,0.07,0.000000,,2013-09-13 08:11:00,
2013-09-13 04:12:00,44.0,38.0,-100.00,NNW,331,4.0,8.0,80,0.00,,,0.07,0.000000,,2013-09-13 08:12:00,
2013-09-13 04:42:00,44.0,38.0,-100.00,NNW,331,4.0,8.0,80,0.00,,,0.07,0.000000,,2013-09-13 08:42:00,
2013-09-13 04:52:00,44.0,38.0,-100.00,NNW,331,4.0,8.0,80,0.00,,,0.07,0.000000,,2013-09-13 08:52:00,
2013-09-13 05:02:00,44.0,38.0,-100.00,NNW,331,4.0,8.0,80,0.00,,,0.07,0.000000,,2013-09-13 09:02:00,
2013-09-13 05:12:00,43.0,39.0,-100.00,NNW,329,4.0,7.0,85,0.00,,,0.07,0.000000,,2013-09-13 09:12:00,
2013-09-13 05:43:00,43.0,39.0,-100.00,NNW,329,4.0,7.0,85,0.00,,,0.07,0.000000,,2013-09-13 09:43:00,
2013-09-13 05:54:00,43.0,39.0,-100.00,NNW,329,4.0,7.0,85,0.00,,,0.07,0.000000,,2013-09-13 09:54:00,
2013-09-13 06:03:00,43.0,39.0,-100.00,NNW,329,4.0,7.0,85,0.00,,,0.07,0.000000,,2013-09-13 10:03:00,
2013-09-13 06:12:00,43.0,38.0,-100.00,NW,325,3.0,6.0,84,0.00,,,0.07,0.000000,,2013-09-13 10:12:00,
2013-09-13 06:42:00,43.0,38.0,-100.00,NW,325,3.0,6.0,84,0.00,,,0.07,0.000000,,2013-09-13 10:42:00,
2013-09-13 06:53:00,43.0,38.0,-100.00,NW,325,3.0,6.0,84,0.00,,,0.07,0.000000,,2013-09-13 10:53:00,
2013-09-13 07:03:00,43.0,38.0,-100.00,NW,325,3.0,6.0,84,0.00,,,0.07,0.000000,,2013-09-13 11:03:00,
2013-09-13 07:12:00,41.0,38.0,-100.00,NNW,330,3.0,6.0,90,0.00,,,0.07,0.000000,,2013-09-13 11:12:00,
2013-09-13 07:42:00,41.0,38.0,-100.00,NNW,330,3.0,6.0,90,0.00,,,0.07,0.000000,,2013-09-13 11:42:00,
2013-09-13 07:52:00,41.0,38.0,-100.00,NNW,330,3.0,6.0,90,0.00,,,0.07,0.000000,,2013-09-13 11:52:00,
2013-09-13 08:01:00,41.0,38.0,-100.00,NNW,330,3.0,6.0,90,0.00,,,0.07,0.000000,,2013-09-13 12:01:00,
2013-09-13 08:42:00,42.0,39.0,-100.00,North,353,4.0,9.0,88,0.00,,,0.07,26.000000,,2013-09-13 12:42:00,
2013-09-13 08:52:00,42.0,39.0,-100.00,North,353,4.0,9.0,88,0.00,,,0.07,26.000000,,2013-09-13 12:52:00,
2013-09-13 09:02:00,42.0,39.0,-100.00,North,353,4.0,9.0,88,0.00,,,0.07,26.000000,,2013-09-13 13:02:00,
2013-09-13 09:11:00,42.0,39.0,-100.00,North,353,4.0,9.0,88,0.00,,,0.07,26.000000,,2013-09-13 13:11:00,
2013-09-13 09:42:00,47.0,39.0,-100.00,North,4,5.0,10.0,73,0.00,,,0.07,213.000000,,2013-09-13 13:42:00,
2013-09-13 09:52:00,47.0,39.0,-100.00,North,4,5.0,10.0,73,0.00,,,0.07,213.000000,,2013-09-13 13:52:00,
2013-09-13 10:02:00,47.0,39.0,-100.00,North,4,5.0,10.0,73,0.00,,,0.07,213.000000,,2013-09-13 14:02:00,
2013-09-13 10:11:00,47.0,39.0,-100.00,North,4,5.0,10.0,73,0.00,,,0.07,213.000000,,2013-09-13 14:11:00,
2013-09-13 10:42:00,49.0,37.0,-100.00,North,359,7.0,18.0,64,0.00,,,0.07,384.000000,,2013-09-13 14:42:00,
2013-09-13 10:52:00,49.0,37.0,-100.00,North,359,7.0,18.0,64,0.00,,,0.07,384.000000,,2013-09-13 14:52:00,
2013-09-13 11:02:00,49.0,37.0,-100.00,North,359,7.0,18.0,64,0.00,,,0.07,384.000000,,2013-09-13 15:02:00,
2013-09-13 11:11:00,49.0,37.0,-100.00,North,359,7.0,18.0,64,0.00,,,0.07,384.000000,,2013-09-13 15:11:00,
2013-09-13 11:12:00,52.0,40.0,-100.00,North,356,5.0,18.0,63,0.00,,,0.07,554.000000,,2013-09-13 15:12:00,
2013-09-13 11:43:00,52.0,40.0,-100.00,North,356,5.0,18.0,63,0.00,,,0.07,554.000000,,2013-09-13 15:43:00,
2013-09-13 11:53:00,52.0,40.0,-100.00,North,356,5.0,18.0,63,0.00,,,0.07,554.000000,,2013-09-13 15:53:00,
2013-09-13 12:03:00,52.0,40.0,-100.00,North,356,5.0,18.0,63,0.00,,,0.07,554.000000,,2013-09-13 16:03:00,
2013-09-13 12:12:00,54.0,40.0,-100.00,NNE,15,6.0,15.0,58,0.00,,,0.07,705.000000,,2013-09-13 16:12:00,
2013-09-13 12:43:00,54.0,40.0,-100.00,NNE,15,6.0,15.0,58,0.00,,,0.07,705.000000,,2013-09-13 16:43:00,
2013-09-13 12:54:00,54.0,40.0,-100.00,NNE,15,6.0,15.0,58,0.00,,,0.07,705.000000,,2013-09-13 16:54:00,
2013-09-13 13:04:00,54.0,40.0,-100.00,NNE,15,6.0,15.0,58,0.00,,,0.07,705.000000,,2013-09-13 17:04:00,
2013-09-13 13:12:00,54.0,39.0,-100.00,North,2,6.0,13.0,56,0.00,,,0.07,788.000000,,2013-09-13 17:12:00,
2013-09-13 13:44:00,54.0,39.0,-100.00,North,2,6.0,13.0,56,0.00,,,0.07,788.000000,,2013-09-13 17:44:00,
2013-09-13 13:53:00,54.0,39.0,-100.00,North,2,6.0,13.0,56,0.00,,,0.07,788.000000,,2013-09-13 17:53:00,
2013-09-13 14:02:00,54.0,39.0,-100.00,North,2,6.0,13.0,56,0.00,,,0.07,788.000000,,2013-09-13 18:02:00,
2013-09-13 14:42:00,58.0,42.0,-100.00,North,358,4.0,11.0,55,0.00,,,0.06,825.000000,,2013-09-13 18:42:00,
2013-09-13 14:52:00,58.0,42.0,-100.00,North,358,4.0,11.0,55,0.00,,,0.06,825.000000,,2013-09-13 18:52:00,
2013-09-13 15:01:00,58.0,42.0,-100.00,North,358,4.0,11.0,55,0.00,,,0.06,825.000000,,2013-09-13 19:01:00,
2013-09-13 15:11:00,58.0,42.0,-100.00,North,358,4.0,11.0,55,0.00,,,0.06,825.000000,,2013-09-13 19:11:00,
2013-09-13 15:43:00,57.0,41.0,-100.00,NE,50,4.0,11.0,54,0.00,,,0.06,721.000000,,2013-09-13 19:43:00,
2013-09-13 15:52:00,57.0,41.0,-100.00,NE,50,4.0,11.0,54,0.00,,,0.06,721.000000,,2013-09-13 19:52:00,
2013-09-13 16:02:00,57.0,41.0,-100.00,NE,50,4.0,11.0,54,0.00,,,0.06,721.000000,,2013-09-13 20:02:00,
2013-09-13 16:11:00,57.0,41.0,-100.00,NE,50,4.0,11.0,54,0.00,,,0.06,721.000000,,2013-09-13 20:11:00,
2013-09-13 16:12:00,60.0,41.0,-100.00,ENE,60,3.0,12.0,49,0.00,,,0.06,688.000000,,2013-09-13 20:12:00,
2013-09-13 16:43:00,60.0,41.0,-100.00,ENE,60,3.0,12.0,49,0.00,,,0.06,688.000000,,2013-09-13 20:43:00,
2013-09-13 16:52:00,60.0,41.0,-100.00,ENE,60,3.0,12.0,49,0.00,,,0.06,688.000000,,2013-09-13 20:52:00,
2013-09-13 17:02:00,60.0,41.0,-100.00,ENE,60,3.0,12.0,49,0.00,,,0.06,688.000000,,2013-09-13 21:02:00,
2013-09-13 17:12:00,59.0,40.0,-100.00,ENE,65,4.0,9.0,49,0.00,,,0.05,583.000000,,2013-09-13 21:12:00,
2013-09-13 17:44:00,59.0,40.0,-100.00,ENE,65,4.0,9.0,49,0.00,,,0.05,583.000000,,2013-09-13 21:44:00,
2013-09-13 17:54:00,59.0,40.0,-100.00,ENE,65,4.0,9.0,49,0.00,,,0.05,583.000000,,2013-09-13 21:54:00,
2013-09-13 18:04:00,59.0,40.0,-100.00,ENE,65,4.0,9.0,49,0.00,,,0.05,583.000000,,2013-09-13 22:04:00,
2013-09-13 18:12:00,57.0,39.0,-100.00,ENE,73,4.0,10.0,50,0.00,,,0.05,419.000000,,2013-09-13 22:12:00,
2013-09-13 18:43:00,57.0,39.0,-100.00,ENE,73,4.0,10.0,50,0.00,,,0.05,419.000000,,2013-09-13 22:43:00,
2013-09-13 18:53:00,57.0,39.0,-100.00,ENE,73,4.0,10.0,50,0.00,,,0.05,419.000000,,2013-09-13 22:53:00,
2013-09-13 19:03:00,57.0,39.0,-100.00,ENE,73,4.0,10.0,50,0.00,,,0.05,419.000000,,2013-09-13 23:03:00,
2013-09-13 19:12:00,55.0,39.0,-100.00,ENE,69,2.0,8.0,54,0.00,,,0.05,232.000000,,2013-09-13 23:12:00,
2013-09-13 19:43:00,55.0,39.0,-100.00,ENE,69,2.0,8.0,54,0.00,,,0.05,232.000000,,2013-09-13 23:43:00,
2013-09-13 19:53:00,55.0,39.0,-100.00,ENE,69,2.0,8.0,54,0.00,,,0.05,232.000000,,2013-09-13 23:53:00,
2013-09-13 20:01:00,55.0,39.0,-100.00,ENE,69,2.0,8.0,54,0.00,,,0.05,232.000000,,2013-09-14 00:01:00,
2013-09-13 20:42:00,47.0,41.0,-100.00,SE,140,0.0,5.0,81,0.00,,,-99.99,48.000000,,2013-09-14 00:42:00,
2013-09-13 20:52:00,47.0,41.0,-100.00,SE,140,0.0,5.0,81,0.00,,,-99.99,48.000000,,2013-09-14 00:52:00,
2013-09-13 21:02:00,47.0,41.0,-100.00,SE,140,0.0,5.0,81,0.00,,,-99.99,48.000000,,2013-09-14 01:02:00,
2013-09-13 21:11:00,47.0,41.0,-100.00,SE,140,0.0,5.0,81,0.00,,,-99.99,48.000000,,2013-09-14 01:11:00,
2013-09-13 21:12:00,42.0,40.0,-100.00,South,188,0.0,0.0,93,0.00,,,0.05,0.000000,,2013-09-14 01:12:00,
2013-09-13 21:42:00,42.0,40.0,-100.00,South,188,0.0,0.0,93,0.00,,,0.05,0.000000,,2013-09-14 01:42:00,
2013-09-13 21:52:00,42.0,40.0,-100.00,South,188,0.0,0.0,93,0.00,,,0.05,0.000000,,2013-09-14 01:52:00,
2013-09-13 22:02:00,42.0,40.0,-100.00,South,188,0.0,0.0,93,0.00,,,0.05,0.000000,,2013-09-14 02:02:00,
2013-09-13 22:12:00,40.0,39.0,-100.00,South,173,1.0,2.0,95,0.00,,,0.04,0.000000,,2013-09-14 02:12:00,
2013-09-13 22:42:00,40.0,39.0,-100.00,South,173,1.0,2.0,95,0.00,,,0.04,0.000000,,2013-09-14 02:42:00,
2013-09-13 22:52:00,40.0,39.0,-100.00,South,173,1.0,2.0,95,0.00,,,0.04,0.000000,,2013-09-14 02:52:00,
2013-09-13 23:02:00,40.0,39.0,-100.00,South,173,1.0,2.0,95,0.00,,,0.04,0.000000,,2013-09-14 03:02:00,
2013-09-13 23:12:00,41.0,39.0,-100.00,South,191,2.0,4.0,94,0.00,,,0.03,0.000000,,2013-09-14 03:12:00,
2013-09-13 23:45:00,41.0,39.0,-100.00,South,191,2.0,4.0,94,0.00,,,0.03,0.000000,,2013-09-14 03:45:00,
2013-09-13 23:55:00,41.0,39.0,-100.00,South,191,2.0,4.0,94,0.00,,,0.03,0.000000,,2013-09-14 03:55:00,